Dewpoint
17 17 17 18 19 18 19 21 21 21 20 20 19 19 19 20 20 21 22 22 21 21 21 21 22 23 25 28 30 31 32 32 32 32 32 32 32 32 32 32 32 32 31 31 31 31 31 31 31 32 32 32 33 33 33 34 34 34 34 35 35 35 36 36 37 38 40 41 42 42 42 43 42 42 42 42 43 43 43 43 43 44 44 44 44 44
17 17 18 19 20 20 20 21 21 20 19 18 18 18 18 18 19 19 20 21 21 21 22 22 23 24 23 26 29 31 31 31 31 31 31 31 31 31 31 30 30 30 30 30 30 30 30 31 31 31 32 32 32 33 33 33 33 34 34 34 34 35 35 36 37 39 40 41 41 41 41 41 41 41 41 41 42 42 42 43 43 43 43 43 43 43
17 17 18 20 21 21 20 20 20 19 19 18 18 19 19 19 19 20 21 22 23 24 24 25 25 24 23 25 27 30 30 30 30 30 30 30 30 30 30 30 30 30 30 30 30 30 30 30 31 31 31 32 32 32 33 33 33 34 34 34 34 34 35 36 38 39 40 40 39 39 38 38 38 38 38 39 39 40 41 41 41 42 42 42 42 43
18 18 19 21 21 21 19 19 18 19 19 19 20 20 20 20 21 22 23 24 25 25 25 25 24 23 21 22 24 27 28 28 28 28 28 28 28 29 29 29 29 29 30 30 30 30 30 31 31 31 32 32 32 32 33 33 34 34 34 34 34 35 36 37 38 39 39 39 38 37 36 34 34 34 34 35 36 37 38 39 39 39 39 40 40 40
20 21 21 21 20 19 19 18 19 19 20 21 21 21 22 23 25 26 27 26 25 24 23 21 20 19 18 18 20 24 26 26 27 27 27 27 28 28 28 29 29 29 29 30 30 30 31 31 31 31 32 32 33 33 34 34 34 34 34 35 36 36 38 38 38 39 38 38 36 35 34 33 33 33 33 34 34 35 36 37 37 37 37 38 38 39
22 22 22 21 19 19 19 19 20 21 21 22 23 25 26 27 27 26 25 24 22 21 20 18 17 16 15 16 18 22 25 25 25 26 26 27 27 28 28 29 29 29 30 30 30 30 31 31 31 32 32 33 33 34 34 34 35 35 36 36 36 37 37 37 36 36 36 35 34 33 32 32 32 33 33 34 34 34 35 35 36 36 36 36 37 37
23 21 21 20 20 20 20 21 22 23 24 25 26 27 27 26 24 23 21 20 19 18 17 17 16 15 13 14 17 20 21 23 24 25 26 27 27 28 28 28 29 29 30 30 30 30 31 31 31 32 32 33 33 34 34 34 35 35 36 35 34 34 34 34 33 33 33 32 32 32 31 31 32 32 33 33 34 34 34 35 35 35 35 36 36 37
21 21 20 20 21 21 21 23 25 27 27 27 26 25 23 21 21 20 19 19 18 17 15 15 14 13 11 12 14 16 16 18 20 21 23 24 25 27 27 28 29 29 30 30 30 30 30 30 31 31 32 32 33 33 34 34 34 33 32 32 31 31 31 31 31 31 31 31 31 31 31 31 32 32 33 34 34 34 34 34 35 35 35 36 36 37
21 21 21 21 21 22 24 25 27 29 28 26 24 22 20 19 18 17 17 17 16 15 13 12 12 12 11 12 12 14 16 18 18 19 20 21 21 23 26 27 28 29 29 29 30 30 30 30 31 31 31 32 32 33 33 32 31 30 30 30 30 30 30 30 30 30 30 30 31 31 31 32 32 33 33 34 34 34 34 34 35 35 36 36 37 37
22 21 21 22 24 25 26 26 26 25 25 24 22 21 19 17 16 15 14 13 13 13 12 12 12 12 12 13 14 16 18 21 22 23 24 23 23 24 25 25 26 26 28 29 29 29 30 30 30 31 31 31 31 31 30 30 29 29 29 29 29 29 29 30 30 30 30 30 31 31 32 32 33 33 33 34 34 34 34 34 35 35 36 36 37 37
22 22 23 25 27 27 27 25 23 22 21 21 20 19 17 16 14 13 12 11 11 12 12 13 13 14 14 15 16 18 19 19 20 21 23 24 25 25 25 25 25 26 27 28 28 28 29 29 29 29 29 29 29 29 29 28 28 28 28 28 29 29 29 29 29 30 30 30 31 31 32 32 33 33 33 34 34 34 34 35 35 35 36 36 37 37
23 25 26 27 26 25 23 21 20 19 18 17 16 15 13 13 13 13 12 11 12 12 12 13 15 16 17 17 18 19 18 16 16 16 17 19 21 22 22 23 24 25 25 25 25 26 26 27 27 27 27 27 27 28 27 27 27 28 28 28 28 28 28 29 29 29 30 30 31 31 32 32 33 33 33 34 34 34 34 35 35 35 36 36 37 37
26 27 26 25 22 20 18 17 16 16 15 14 13 12 11 12 12 13 13 12 13 13 14 15 16 18 19 20 19 18 16 16 15 15 16 16 17 18 19 19 19 19 19 20 20 21 24 25 25 26 26 26 27 27 28 27 27 28 28 28 28 28 28 29 29 30 30 30 31 31 32 32 33 33 34 34 34 34 34 35 35 36 37 37 38 38
26 25 23 21 19 17 16 15 14 14 13 12 12 12 12 12 13 14 14 14 14 16 16 18 19 20 21 20 19 17 16 16 16 16 17 17 17 18 18 18 18 18 17 17 17 18 21 22 23 23 25 26 26 27 27 27 27 27 27 28 28 28 29 29 30 30 30 31 32 32 33 33 33 34 34 34 34 35 35 36 37 37 38 38 38 39
24 21 19 18 17 16 15 14 13 13 12 12 12 13 13 14 15 15 15 16 17 18 20 21 21 20 19 17 16 16 17 17 17 17 17 17 18 19 19 18 18 18 18 17 17 18 21 21 21 21 23 24 25 25 25 25 26 27 27 28 28 29 29 30 30 30 31 32 32 33 33 34 34 34 34 35 35 36 37 38 38 38 38 37 37 37
21 19 17 17 16 15 14 14 13 13 13 13 13 14 15 15 16 16 17 18 20 21 21 21 19 17 16 16 16 17 17 18 18 18 18 18 18 19 18 18 17 17 17 17 17 18 19 20 21 22 22 23 25 25 25 25 26 27 27 28 28 29 29 30 30 30 31 32 32 33 33 34 34 35 35 36 36 37 37 38 37 37 37 36 36 36
19 18 17 16 15 15 14 14 14 14 14 14 15 15 16 16 18 19 20 21 22 22 21 19 16 15 15 15 16 18 18 19 19 19 19 18 18 18 18 18 18 17 17 18 18 19 20 21 21 21 21 23 24 25 25 26 26 27 28 28 29 29 29 30 30 30 31 32 32 33 34 34 34 35 35 36 36 36 36 36 36 35 35 35 35 35
18 17 16 15 15 14 14 14 14 14 15 15 16 16 18 20 21 22 23 23 22 21 19 18 17 16 16 16 16 17 19 20 20 20 19 18 17 17 18 18 18 18 18 19 20 21 21 20 19 18 20 23 25 25 25 26 27 27 28 28 29 29 29 30 30 30 31 32 32 33 33 34 34 34 34 34 34 34 34 34 34 34 34 35 35 35
17 16 15 15 15 15 15 15 16 16 16 17 18 19 21 22 23 24 24 23 21 19 18 18 18 17 17 17 17 17 19 20 20 19 19 18 18 18 18 19 19 20 20 21 21 20 19 18 20 21 24 25 25 26 26 27 27 28 28 28 29 29 29 30 30 30 30 31 31 32 32 32 33 33 33 33 33 33 33 33 33 34 34 34 35 35
16 16 16 16 16 16 16 17 17 18 19 21 22 23 24 24 24 23 21 20 19 19 19 19 19 19 19 18 18 18 19 20 20 20 19 18 18 18 18 20 20 21 21 20 20 19 19 18 20 22 25 25 26 26 27 27 27 28 28 28 29 29 29 29 30 30 30 30 30 31 31 32 32 32 32 32 32 32 32 33 33 33 34 34 35 35
16 16 16 17 17 17 18 19 20 21 23 25 26 25 25 24 22 21 20 20 20 21 21 21 21 20 20 20 19 19 20 21 21 20 20 19 18 18 19 19 20 19 18 18 18 18 20 20 21 22 24 25 26 26 26 27 27 27 28 28 28 29 29 29 29 30 30 30 30 30 31 31 32 32 32 32 32 32 32 33 33 33 34 34 34 34
17 17 18 19 19 20 21 22 24 26 28 28 27 25 24 22 21 21 21 21 21 21 21 21 21 21 21 21 21 21 21 21 21 21 20 19 18 18 18 18 17 17 16 17 18 19 20 20 19 20 23 25 25 26 26 26 27 27 27 28 28 28 29 29 29 30 30 30 30 30 31 31 31 32 32 32 32 32 33 33 33 33 33 34 34 34
19 19 20 21 22 23 25 25 27 28 29 27 25 24 23 23 23 23 23 23 23 23 22 22 22 22 22 21 21 20 20 20 20 20 19 18 17 16 17 17 17 17 17 17 17 18 18 17 18 19 21 24 25 25 26 26 26 27 27 28 28 28 28 29 29 30 30 30 30 30 31 31 31 31 32 32 32 32 33 33 33 34 34 34 34 35
21 22 24 25 27 28 28 28 27 26 25 24 23 23 25 25 25 25 25 25 24 24 24 23 22 21 21 20 19 18 18 19 19 19 18 18 17 17 17 17 17 17 16 16 16 16 16 16 17 18 20 23 25 25 25 26 26 27 27 27 28 28 28 29 29 30 30 30 30 31 31 31 32 32 32 32 33 33 33 33 34 34 34 34 35 35
25 26 28 29 30 30 28 26 25 24 23 23 23 24 25 25 25 25 25 25 24 23 22 21 20 19 17 17 17 16 17 18 18 18 18 17 17 17 16 16 16 16 16 16 16 16 16 16 17 18 19 21 23 25 25 26 26 26 27 27 27 28 28 29 29 30 30 30 31 31 31 32 32 32 33 33 33 33 33 34 34 34 34 34 34 34
29 30 30 29 29 28 27 26 26 26 26 25 25 24 24 25 25 25 24 23 22 21 21 19 18 17 16 16 16 16 16 18 18 18 18 17 16 16 16 16 16 16 16 17 17 17 17 17 17 17 18 19 21 24 25 25 26 26 27 27 27 28 28 28 29 29 30 30 30 30 30 31 31 31 32 32 32 33 33 33 33 33 33 33 33 33
30 29 27 27 26 26 26 27 27 27 28 27 27 26 25 25 25 24 22 21 21 20 19 18 17 16 16 15 15 16 16 17 17 17 17 17 16 16 16 16 16 16 17 17 17 18 19 18 18 18 18 18 20 22 24 25 25 26 26 26 27 27 27 28 28 28 29 29 29 30 30 30 30 31 31 32 32 32 33 33 33 34 34 33 33 33
26 25 25 25 25 25 26 26 26 27 27 27 28 28 27 25 24 22 21 21 20 20 19 18 17 16 16 15 15 16 16 16 17 17 17 17 16 16 16 16 17 17 17 17 17 18 20 19 18 17 17 18 19 20 23 24 25 25 25 26 26 26 26 27 27 28 28 29 29 30 30 30 31 32 32 33 33 33 34 34 34 34 34 34 34 33
23 23 24 24 25 25 25 25 25 26 26 27 28 28 27 25 23 22 21 21 21 20 19 18 17 17 16 16 16 16 16 16 16 16 17 17 16 16 16 17 17 17 17 17 17 17 17 17 16 16 16 18 18 19 20 22 23 23 24 25 25 26 26 27 27 28 28 29 29 30 30 31 32 32 33 33 34 34 34 34 34 34 34 34 34 34
20 21 21 22 22 23 23 22 23 25 26 26 27 26 25 23 22 21 21 21 21 21 19 18 18 17 17 16 16 15 14 14 15 16 17 17 17 17 17 17 17 18 18 17 16 15 14 15 15 16 16 18 18 18 18 20 21 21 21 23 24 25 26 26 27 27 28 29 29 30 30 31 31 32 32 32 32 33 33 33 33 32 33 33 33 34
18 18 18 19 20 21 21 21 22 23 24 25 25 24 23 22 21 21 21 21 21 21 20 19 18 17 17 16 15 14 13 14 16 18 18 18 18 18 18 18 18 18 18 18 16 15 13 13 14 16 16 17 18 18 19 19 19 20 20 21 22 23 25 26 26 27 28 28 29 29 30 30 30 30 30 31 31 31 32 32 32 31 31 31 31 31
18 18 18 19 19 20 20 21 21 21 21 21 21 21 21 21 21 21 21 21 21 21 20 19 19 18 18 17 16 15 14 15 17 19 20 20 19 19 19 18 18 18 18 19 18 16 15 14 14 15 16 17 17 18 19 19 19 19 20 20 21 21 24 25 26 26 27 28 28 29 29 29 29 29 30 30 30 31 31 31 31 31 31 30 30 30
18 19 19 19 20 20 19 19 19 19 19 19 19 20 20 20 21 21 21 21 21 21 21 20 19 18 18 17 17 16 16 16 18 21 22 21 20 20 19 19 18 18 18 19 18 18 17 16 16 16 16 16 17 17 18 19 19 20 20 20 20 21 23 24 25 25 26 27 27 28 29 29 29 29 30 30 30 31 31 31 31 31 31 30 30 30
19 20 20 19 19 19 18 18 18 18 18 18 19 19 19 19 20 20 21 21 21 21 21 21 20 19 18 18 17 17 16 17 19 21 23 22 21 20 20 19 19 18 18 18 18 18 17 16 16 16 16 16 17 17 17 18 19 20 20 20 20 21 22 23 24 24 25 25 25 26 27 27 28 29 29 30 30 30 31 31 31 32 32 31 31 30
19 19 19 18 18 17 17 17 18 18 18 18 19 19 19 19 19 19 20 20 21 21 21 21 21 21 20 19 18 17 17 17 20 22 24 23 22 21 20 19 19 18 18 18 18 17 17 17 17 17 16 16 16 16 17 17 18 19 20 21 21 21 22 23 23 24 24 24 24 25 25 25 26 27 27 28 29 30 31 31 32 32 33 33 32 32
18 18 18 17 17 17 17 17 17 18 18 18 18 19 19 19 19 19 19 20 20 21 21 21 21 21 21 21 20 20 19 19 21 23 25 24 23 22 21 20 19 19 19 19 18 18 17 17 17 17 17 16 16 16 16 17 18 19 20 21 21 21 22 23 23 24 24 24 24 24 24 25 25 26 27 29 30 30 31 32 32 33 33 34 34 33
17 17 17 16 16 16 17 17 17 17 18 18 18 18 19 19 19 19 19 20 21 21 21 21 21 22 23 22 22 22 22 22 22 24 25 25 24 23 21 21 21 21 21 20 19 19 18 17 17 17 16 16 15 16 16 17 18 19 19 20 21 21 22 23 23 24 24 24 24 25 25 25 26 26 27 29 30 30 31 32 33 33 33 34 34 34
17 16 16 16 16 16 16 17 17 17 18 18 18 18 19 19 20 20 20 21 21 21 21 21 21 21 23 24 25 25 24 24 24 25 25 25 25 24 23 22 21 21 21 21 21 20 19 18 17 16 16 15 16 17 18 18 18 18 19 20 21 21 22 23 23 24 24 25 25 26 26 26 26 27 27 28 28 29 29 30 30 32 33 33 33 34
16 16 16 16 16 16 16 17 17 18 18 18 19 19 19 19 20 21 21 21 21 21 21 21 21 21 22 23 24 25 25 25 25 25 25 25 25 24 23 22 22 21 21 22 21 21 20 19 18 17 16 16 16 17 17 17 17 18 19 20 21 21 22 23 24 24 25 25 25 26 26 26 26 26 27 27 27 27 27 28 29 30 30 30 31 32
16 16 16 16 17 16 17 17 18 18 18 19 19 20 19 19 19 20 21 20 20 20 21 21 21 21 21 22 23 24 25 25 25 25 25 25 25 25 24 23 22 22 22 22 22 22 21 21 20 19 19 18 17 17 17 17 18 19 20 20 20 20 21 22 23 24 24 25 25 26 26 26 26 27 27 27 28 28 28 28 28 29 30 30 29 29
16 16 16 16 17 17 18 18 18 18 19 19 19 18 18 18 18 18 19 19 20 20 20 21 21 21 21 21 21 22 22 24 24 25 25 25 25 25 24 23 23 23 23 23 22 22 22 21 20 19 18 18 18 18 18 18 19 21 21 20 20 20 21 22 23 23 24 25 25 26 27 27 28 28 28 29 29 29 29 29 29 29 30 30 29 29
17 16 16 16 16 17 17 18 18 19 19 18 18 18 18 18 18 18 18 19 19 19 19 20 20 20 20 20 20 21 21 22 24 25 25 25 25 25 24 24 24 24 24 24 23 22 21 21 20 19 18 18 18 18 17 17 19 20 21 20 21 21 22 22 22 22 23 24 25 26 27 28 28 28 28 29 29 30 30 30 30 31 31 30 30 30
16 16 16 16 16 17 18 18 19 18 18 17 17 17 18 18 18 19 19 19 19 19 19 19 20 19 19 19 19 19 21 22 23 24 25 25 25 25 25 25 25 25 25 24 22 21 20 21 20 19 19 19 19 18 17 18 18 19 20 21 21 21 20 21 21 23 24 25 25 26 27 27 28 29 29 30 30 30 31 32 33 33 33 32 31 30
16 16 16 16 17 17 17 17 17 17 17 17 17 17 17 18 19 19 20 19 19 19 19 19 19 19 19 18 18 18 19 21 22 23 24 25 26 26 26 25 25 25 24 23 21 21 20 20 19 19 19 19 19 18 18 18 18 19 20 21 22 22 21 22 23 24 24 25 25 26 27 28 29 30 30 30 30 31 31 32 32 33 34 34 33 32
16 16 16 17 17 17 16 16 16 17 17 17 17 17 17 18 19 19 19 19 19 19 19 19 19 19 18 18 18 18 18 19 20 21 23 25 25 26 25 25 24 23 23 23 22 21 21 20 19 19 20 20 19 19 18 18 19 19 21 22 23 23 23 24 24 25 25 25 25 26 28 29 30 30 30 30 30 31 32 32 33 33 34 34 34 33
16 16 16 16 16 16 16 17 17 17 16 17 17 17 17 18 18 19 19 19 19 19 19 19 19 19 18 18 18 18 18 19 20 20 21 22 23 24 24 24 24 23 23 23 22 22 21 21 20 20 20 20 19 19 19 19 20 20 21 22 22 23 23 24 25 25 25 26 26 27 29 30 30 30 29 29 30 30 32 32 33 33 34 34 34 34
16 16 16 16 16 16 16 16 17 16 16 16 17 17 17 18 18 19 19 19 19 19 19 19 19 18 18 18 18 18 18 19 20 20 21 21 21 22 22 23 23 24 23 23 22 22 22 22 21 21 20 19 18 18 19 20 21 21 21 22 23 23 23 24 25 25 26 27 28 29 30 30 30 30 29 29 30 30 31 32 33 33 34 34 34 35
16 16 16 16 16 16 16 16 16 16 16 16 16 17 18 18 19 19 19 19 19 19 19 19 18 18 18 18 18 19 20 20 20 20 21 21 21 21 22 22 22 22 23 23 23 23 22 23 22 22 21 20 19 19 19 20 21 22 22 23 24 24 24 24 25 26 27 28 29 30 31 31 30 30 30 30 29 30 30 31 32 33 34 34 35 35
16 16 16 16 16 16 16 16 16 16 16 16 17 17 17 19 20 20 19 19 18 18 18 18 18 18 18 18 19 20 21 21 21 20 20 21 21 21 21 21 21 21 21 21 21 21 21 22 23 23 23 22 21 20 20 21 22 23 24 24 24 24 24 25 25 26 27 28 30 31 31 31 31 31 30 30 29 29 30 30 31 33 34 34 35 35
16 16 16 16 16 16 16 16 16 16 16 17 17 17 17 18 18 18 18 18 18 18 18 18 19 19 19 19 19 20 21 21 21 20 20 21 21 21 21 21 21 21 20 19 19 19 19 20 21 23 25 25 24 23 23 23 24 24 24 24 24 24 25 25 25 26 28 29 30 31 31 31 31 31 31 30 30 29 29 30 30 32 33 34 35 35
16 16 16 16 16 16 16 16 17 17 17 17 18 18 17 17 18 18 18 18 18 18 18 19 19 19 19 20 20 20 21 21 20 20 20 21 21 21 21 21 21 20 19 18 17 17 16 17 17 19 21 24 26 27 26 25 25 24 23 23 24 24 25 25 26 27 29 30 30 31 31 31 31 31 31 30 30 29 29 29 30 31 33 34 34 35